[[{"header":{"parameterUnit":"m.s-1","parameterCategory":1,"la1":30.2991,"la2":30.254,"lo1":-89.0895,"lo2":-89.0444,"dy":0.0017,"dx":0.0017,"nx":28,"ny":28,"refTime":"2025-01-14T03:00:00:Z","depth":0,"parameterNumber":2,"parameterNumberName":"U-component_of_WINDS"},"data":[0,0,0,0,0,0,0,0,0,0,0,0,0,0,0,0,0,0,0,0,0,0,0,0,0,0,0,0,0,0,0,0,0,0,0,0,0,0,0,0,0,0,0,0,0,0,0,0,0,0,0,0,0,0,0,0,0,0,-0.9582,-0.9583,0,-0.9656,-0.9656,-0.9657,-0.9622,-0.962,-0.9619,-0.9617,-0.9697,-0.9701,-0.9705,0,0,0,0,0,0,0,0,0,0,0,0,0,-0.9414,-0.9417,-0.9582,-0.9583,-0.9584,-0.9656,-0.9657,-0.9658,-0.9623,-0.962,-0.9618,-0.9616,-0.9696,-0.97,-0.9705,0,0,0,0,0,0,0,0,0,0,0,0,0,-0.9487,-0.9418,-0.9582,-0.9575,-0.9575,-0.9655,-0.9657,-0.9658,-0.9623,-0.962,-0.9618,-0.9615,-0.9694,-0.97,-0.9706,-0.9798,0,0,-0.9723,-0.9726,0,0,0,0,0,0,0,0,-0.9483,-0.9494,-0.9575,-0.9575,-0.9576,-0.9627,-0.9627,-0.9705,-0.9624,-0.9605,-0.9617,-0.9613,-0.9676,-0.9683,-0.9704,-0.9802,-0.9806,-0.9724,-0.9727,-0.973,-0.9732,0,0,0,0,0,0,0,-0.9478,-0.949,-0.9611,-0.9576,-0.9577,-0.9569,-0.9576,-0.9641,-0.9656,-0.9606,-0.9604,-0.9613,-0.9676,-0.9698,-0.9705,-0.9807,-0.9724,-0.9729,-0.9733,-0.9735,-0.9985,-0.9988,0,0,0,0,0,0,-0.9473,-0.9486,-0.9609,-0.9613,-0.9521,-0.9574,-0.9583,-0.9613,-0.9655,-0.9658,-0.9615,-0.9611,-0.9689,-0.9698,-0.9708,-0.982,-0.973,-0.9735,-0.9739,-0.9982,-0.9985,-0.9989,0,0,0,0,0,0,-0.9469,-0.9484,-0.9606,-0.9549,-0.9564,-0.958,-0.9615,-0.9616,-0.9638,-0.9662,-0.9664,-0.9635,-0.9688,-0.97,-0.9776,-0.9822,-0.9738,-0.9743,-0.9978,-0.9983,-0.9987,-1.0044,0,0,0,0,0,0,-0.9465,-0.9483,-0.9518,-0.955,-0.9567,-0.9672,-0.9618,-0.962,-0.9648,-0.9643,-0.9681,-0.9685,-0.9686,-0.9767,-0.9782,-0.9829,-0.9748,-0.9974,-0.998,-0.9986,-1.0039,-1.005,-1.0061,0,0,0,0,0,-0.9459,-0.9532,-0.952,-0.9535,-0.9611,-0.9675,-0.9685,-0.9684,-0.9652,-0.9688,-0.9702,-0.9683,-0.9814,-0.9775,-0.9791,-0.9841,-0.9971,-0.9978,-0.9985,-1.0034,-1.0048,-1.006,0,0,0,0,0,0,-0.9507,-0.9536,-0.9523,-0.9609,-0.9639,-0.9669,-0.9714,-0.9699,-0.9741,-0.9735,-0.9733,-0.9742,-0.9821,-0.9838,-0.9794,-0.9932,-0.9888,-0.9898,-0.9919,-0.9933,-0.9944,-0.994,-0.9753,0,0,0,0,0,-0.9527,-0.9575,-0.9599,-0.9672,-0.9688,-0.9698,-0.9726,-0.9722,-0.9754,-0.9768,-0.9788,-0.9821,-0.9869,-0.9902,-0.9947,-1.0039,-1.0048,-1.0081,-1.0092,-1.0101,-1.0112,-1.0162,-1.0177,-1.0012,-1.0012,-1.0012,0,0,-0.9571,-0.9592,-0.9624,-0.9682,-0.9706,-0.9757,-0.971,-0.9766,-0.9804,-0.9777,-0.985,-0.9866,-0.9902,-0.9987,-1.0025,-1.0004,-1.0158,-1.011,-1.0117,-1.0123,-1.0171,-1.0186,-1.02,-1.0017,-1.0016,-1.0015,0,0,-0.9676,-0.9697,-0.976,-0.9784,-0.9819,-0.9825,-0.984,-0.9871,-0.988,-0.9952,-0.9933,-0.9978,-1.0062,-1.0089,-1.0113,-1.0226,-1.0211,-1.0241,-1.03,-1.0349,-1.0362,-1.0374,-1.0416,-1.0431,-1.025,-1.025,-1.025,0,-0.9727,-0.9802,-0.9795,-0.9853,-0.988,-0.9854,-0.992,-0.9943,-0.9992,-1.0012,-0.9986,-1.0089,-1.0112,-1.0203,-1.023,-1.025,-1.0268,-1.0238,-1.0361,-1.0372,-1.0383,-1.0423,-1.0439,-1.0254,-1.0254,-1.0253,-1.0253,0,-0.9862,-0.9914,-0.9962,-1.0007,-1.0039,-1.01,-1.0104,-1.0137,-1.013,-1.0139,-1.0213,-1.0239,-1.0289,-1.031,-1.0304,-1.04,-1.0385,-1.036,-1.0316,-1.0403,-1.044,-1.0455,-1.0259,-1.0258,-1.0257,-1.0256,0,0,-1.0004,-1.0043,-1.0061,-1.0082,-1.0117,-1.0158,-1.0217,-1.0265,-1.0294,-1.0327,-1.0378,-1.0447,-1.0424,-1.0452,-1.0448,-1.0491,-1.058,-1.0461,-1.0461,-1.0484,-1.0688,-1.0709,-1.0727,-1.0568,-1.0571,-1.0573,-1.0686,0,-1.0114,-1.0217,-1.0212,-1.0309,-1.0358,-1.0333,-1.0385,-1.0413,-1.0422,-1.0465,-1.0475,-1.0525,-1.0489,-1.0506,-1.0547,-1.0561,-1.0622,-1.0552,-1.0618,-1.062,-1.0612,-1.0746,-1.0769,-1.0874,-1.07,-1.0703,-1.0705,0,-1.0257,-1.0293,-1.0395,-1.0422,-1.0442,-1.0489,-1.0532,-1.0572,-1.0603,-1.0606,-1.0636,-1.0625,-1.0686,-1.0637,-1.0722,-1.0675,-1.0701,-1.0711,-1.0715,-1.0724,-1.067,-1.0761,-1.0907,-1.0924,-1.0727,-1.0725,-1.0724,0,-1.0352,-1.0427,-1.0497,-1.0515,-1.0548,-1.0581,-1.0597,-1.0624,-1.0653,-1.069,-1.0709,-1.0753,-1.0778,-1.0813,-1.0815,-1.0778,-1.09,-1.0851,-1.0907,-1.0907,-1.0937,-1.0935,-1.1092,-1.0949,-1.0948,-1.0948,-1.0948,0,-1.0477,-1.0541,-1.0541,-1.0584,-1.0655,-1.0648,-1.0718,-1.073,-1.0755,-1.0801,-1.0781,-1.0826,-1.0823,-1.0868,-1.0869,-1.094,-1.0951,-1.0956,-1.0957,-1.096,-1.096,-1.0979,-1.0973,-1.0952,-1.0951,-1.095,-1.095,0,-1.0598,-1.06,-1.0675,-1.0699,-1.0706,-1.0758,-1.0778,-1.082,-1.0826,-1.0884,-1.0898,-1.0908,-1.0959,-1.0963,-1.1023,-1.1023,-1.111,-1.11,-1.1099,-1.1099,-1.1155,-1.115,-1.1332,-1.1356,-1.1195,-1.1196,-1.1197,0,-1.0679,-1.0727,-1.0755,-1.0784,-1.0801,-1.0848,-1.0876,-1.087,-1.0901,-1.0938,-1.0976,-1.1024,-1.1064,-1.1147,-1.1161,-1.1206,-1.12,-1.126,-1.1207,-1.1208,-1.1203,-1.1201,-1.1207,-1.1271,-1.1273,-1.1275,-1.1276,0,-1.0824,-1.0821,-1.0862,-1.0904,-1.0937,-1.097,-1.1,-1.1025,-1.1023,-1.1058,-1.111,-1.114,-1.1199,-1.1249,-1.1293,-1.131,-1.1294,-1.1292,-1.1307,-1.1313,-1.1311,-1.1315,-1.1131,-1.1289,-1.1287,-1.1286,-1.1286,-1.1285,-1.0929,-1.097,-1.0996,-1.1042,-1.1064,-1.1092,-1.1132,-1.1142,-1.1184,-1.1232,-1.1225,-1.1283,-1.1311,-1.1368,-1.1388,-1.1433,-1.1413,-1.1435,-1.1441,-1.1447,-1.1454,-1.1301,-1.1441,-1.144,-1.144,-1.144,-1.1439,0,-1.1074,-1.1088,-1.1131,-1.1173,-1.1209,-1.1186,-1.1218,-1.1251,-1.1301,-1.1328,-1.1366,-1.1425,-1.1472,-1.1487,-1.1533,-1.1567,-1.156,-1.1579,-1.1579,-1.1583,-1.1469,-1.1452,-1.1584,-1.1584,-1.1584,-1.1584,-1.1584,-1.1584,-1.1154,-1.1224,-1.1224,-1.1304,-1.1318,-1.1373,-1.1393,-1.1419,-1.144,-1.1507,-1.1545,-1.1554,-1.1576,-1.1623,-1.1666,-1.1669,-1.1688,-1.1711,-1.1711,-1.1605,-1.1591,-1.1577,-1.1561,-1.1714,-1.1714,-1.1822,-1.1823,-1.1824]},{"header":{"parameterUnit":"m.s-1","parameterCategory":1,"la1":30.2991,"la2":30.254,"lo1":-89.0895,"lo2":-89.0444,"dy":0.0017,"dx":0.0017,"nx":28,"ny":28,"refTime":"2025-01-14T03:00:00:Z","depth":0,"parameterNumber":3,"parameterNumberName":"V-component_of_WINDS"},"data":[0,0,0,0,0,0,0,0,0,0,0,0,0,0,0,0,0,0,0,0,0,0,0,0,0,0,0,0,0,0,0,0,0,0,0,0,0,0,0,0,0,0,0,0,0,0,0,0,0,0,0,0,0,0,0,0,0,0,-4.3271,-4.3272,0,-4.3317,-4.3318,-4.3318,-4.3234,-4.3231,-4.3228,-4.3226,-4.3271,-4.3274,-4.3278,0,0,0,0,0,0,0,0,0,0,0,0,0,-4.3108,-4.3112,-4.3271,-4.3272,-4.3273,-4.3317,-4.3318,-4.3318,-4.3234,-4.3231,-4.3227,-4.3224,-4.3269,-4.3274,-4.3278,0,0,0,0,0,0,0,0,0,0,0,0,0,-4.3169,-4.3113,-4.3271,-4.3236,-4.3233,-4.3317,-4.3318,-4.3318,-4.3235,-4.3231,-4.3227,-4.3223,-4.3268,-4.3273,-4.3279,-4.3399,0,0,-4.3297,-4.3299,0,0,0,0,0,0,0,0,-4.3166,-4.3175,-4.3241,-4.3239,-4.3236,-4.3265,-4.3277,-4.3345,-4.3236,-4.3234,-4.3225,-4.3221,-4.3272,-4.3277,-4.3295,-4.3401,-4.3403,-4.3297,-4.33,-4.3303,-4.3305,0,0,0,0,0,0,0,-4.3162,-4.3173,-4.3289,-4.3242,-4.3239,-4.3217,-4.3221,-4.3289,-4.3276,-4.3234,-4.3228,-4.3235,-4.327,-4.329,-4.3295,-4.3403,-4.3297,-4.3302,-4.3305,-4.3308,-4.3608,-4.3612,0,0,0,0,0,0,-4.3162,-4.317,-4.3288,-4.3291,-4.319,-4.3223,-4.3228,-4.326,-4.3275,-4.3274,-4.3238,-4.3231,-4.3282,-4.3289,-4.3297,-4.3437,-4.3303,-4.3308,-4.3312,-4.3603,-4.3609,-4.3614,0,0,0,0,0,0,-4.3159,-4.3174,-4.3286,-4.3229,-4.3241,-4.3231,-4.3268,-4.3263,-4.3283,-4.3278,-4.3275,-4.3261,-4.3279,-4.3289,-4.3374,-4.3437,-4.3311,-4.3316,-4.3598,-4.3605,-4.3611,-4.3719,0,0,0,0,0,0,-4.3155,-4.3173,-4.3219,-4.323,-4.3245,-4.3364,-4.3272,-4.3267,-4.3293,-4.3284,-4.3299,-4.3298,-4.3276,-4.3366,-4.3379,-4.3443,-4.3321,-4.3592,-4.3601,-4.3609,-4.371,-4.3729,-4.3745,0,0,0,0,0,-4.3149,-4.3248,-4.3222,-4.3237,-4.3302,-4.3368,-4.3376,-4.335,-4.3299,-4.3345,-4.3341,-4.3297,-4.3428,-4.3375,-4.339,-4.3456,-4.3588,-4.3598,-4.3608,-4.3702,-4.3725,-4.3745,0,0,0,0,0,0,-4.3244,-4.3249,-4.322,-4.3325,-4.3347,-4.3353,-4.341,-4.3375,-4.3411,-4.3401,-4.3366,-4.3371,-4.3462,-4.3467,-4.3408,-4.3572,-4.3499,-4.3513,-4.3565,-4.3587,-4.3605,-4.3602,-4.3325,0,0,0,0,0,-4.3277,-4.3331,-4.3331,-4.3424,-4.3436,-4.3422,-4.3449,-4.3427,-4.3448,-4.3456,-4.3459,-4.348,-4.3526,-4.3557,-4.3598,-4.371,-4.3711,-4.3763,-4.378,-4.3795,-4.3807,-4.3865,-4.3888,-4.3647,-4.3647,-4.3647,0,0,-4.3346,-4.3355,-4.3391,-4.3443,-4.3457,-4.3512,-4.343,-4.3492,-4.3532,-4.3465,-4.3546,-4.3549,-4.357,-4.3668,-4.3712,-4.3675,-4.3874,-4.3808,-4.3819,-4.3824,-4.3878,-4.3901,-4.3921,-4.3654,-4.3653,-4.3652,0,0,-4.35,-4.3513,-4.3591,-4.3607,-4.3629,-4.3618,-4.3637,-4.3649,-4.3648,-4.3729,-4.3679,-4.3726,-4.3806,-4.3822,-4.3841,-4.4,-4.3961,-4.4015,-4.4107,-4.4164,-4.4183,-4.42,-4.4256,-4.4277,-4.4027,-4.4027,-4.4027,0,-4.3583,-4.3665,-4.3636,-4.3701,-4.3725,-4.3667,-4.3745,-4.3761,-4.3796,-4.3814,-4.3772,-4.387,-4.388,-4.3982,-4.402,-4.4038,-4.4057,-4.4013,-4.4183,-4.4199,-4.4214,-4.4267,-4.4289,-4.4033,-4.4033,-4.4032,-4.4031,0,-4.3766,-4.3823,-4.3883,-4.3919,-4.3949,-4.4021,-4.4001,-4.4035,-4.401,-4.4004,-4.4085,-4.4095,-4.4138,-4.416,-4.4136,-4.4258,-4.4234,-4.4189,-4.4115,-4.4244,-4.4294,-4.4314,-4.4043,-4.404,-4.4038,-4.4037,0,0,-4.3982,-4.3999,-4.4022,-4.4037,-4.4056,-4.41,-4.4168,-4.421,-4.4239,-4.4265,-4.432,-4.4388,-4.4346,-4.4367,-4.4345,-4.4395,-4.4519,-4.4343,-4.4343,-4.4375,-4.4653,-4.4688,-4.4712,-4.4493,-4.4497,-4.45,-4.4651,0,-4.4135,-4.4254,-4.4228,-4.4344,-4.4396,-4.4341,-4.44,-4.4418,-4.4413,-4.4456,-4.445,-4.4499,-4.4439,-4.4451,-4.4499,-4.4494,-4.4575,-4.4483,-4.4544,-4.4546,-4.4541,-4.4738,-4.4775,-4.4918,-4.467,-4.4674,-4.4676,0,-4.433,-4.4363,-4.4484,-4.4494,-4.4515,-4.4569,-4.4604,-4.4646,-4.4664,-4.4657,-4.4681,-4.4648,-4.4714,-4.464,-4.473,-4.4668,-4.4691,-4.4692,-4.4697,-4.4702,-4.462,-4.4748,-4.4962,-4.4984,-4.4706,-4.4704,-4.4702,0,-4.4475,-4.455,-4.4632,-4.4646,-4.466,-4.4699,-4.4707,-4.4721,-4.4747,-4.4778,-4.4794,-4.4832,-4.4853,-4.4883,-4.486,-4.4808,-4.4954,-4.4878,-4.4949,-4.495,-4.4983,-4.4982,-4.5205,-4.4998,-4.4998,-4.4997,-4.4997,0,-4.4649,-4.4725,-4.4697,-4.4748,-4.4831,-4.48,-4.4884,-4.4884,-4.4897,-4.4946,-4.49,-4.4947,-4.4914,-4.4958,-4.4941,-4.5018,-4.5027,-4.5023,-4.5017,-4.5027,-4.5028,-4.5042,-4.5032,-4.5003,-4.5002,-4.5001,-4.5,0,-4.4826,-4.4811,-4.4896,-4.4902,-4.4905,-4.4967,-4.4971,-4.5017,-4.5008,-4.5071,-4.5084,-4.507,-4.5119,-4.5099,-4.5151,-4.5139,-4.5237,-4.5219,-4.5232,-4.5227,-4.53,-4.5294,-4.554,-4.5571,-4.5345,-4.5347,-4.5349,0,-4.4939,-4.4996,-4.5008,-4.5038,-4.5048,-4.5097,-4.5123,-4.5094,-4.5124,-4.5148,-4.5192,-4.5236,-4.5271,-4.5351,-4.5345,-4.5384,-4.5366,-4.5449,-4.5371,-4.5379,-4.5367,-4.5364,-4.5369,-4.5465,-4.5468,-4.547,-4.5472,0,-4.5139,-4.5128,-4.5169,-4.5207,-4.524,-4.5268,-4.5292,-4.5319,-4.5291,-4.5326,-4.5375,-4.5402,-4.5454,-4.5499,-4.5533,-4.5539,-4.5501,-4.5496,-4.5515,-4.5526,-4.5531,-4.5529,-4.5275,-4.5491,-4.5489,-4.5488,-4.5487,-4.5486,-4.5287,-4.5336,-4.5351,-4.5398,-4.5412,-4.5436,-4.5479,-4.5476,-4.5517,-4.5558,-4.5538,-4.5595,-4.561,-4.5652,-4.5663,-4.5707,-4.5674,-4.5701,-4.5708,-4.5715,-4.5725,-4.5524,-4.5713,-4.5712,-4.5712,-4.5711,-4.5711,0,-4.5486,-4.5493,-4.5536,-4.5571,-4.5607,-4.5568,-4.5592,-4.5624,-4.5675,-4.5693,-4.5728,-4.5784,-4.5827,-4.5824,-4.5863,-4.5898,-4.5882,-4.5909,-4.5907,-4.5909,-4.5752,-4.5732,-4.5922,-4.5922,-4.5922,-4.5922,-4.5922,-4.5922,-4.5593,-4.5672,-4.5663,-4.5749,-4.5755,-4.5811,-4.5828,-4.5849,-4.5863,-4.5928,-4.5963,-4.5961,-4.597,-4.6009,-4.6046,-4.6044,-4.606,-4.6095,-4.6087,-4.5941,-4.592,-4.59,-4.5881,-4.6099,-4.6099,-4.6239,-4.624,-4.6241]}]]